Home   Weather   Krishnagiri   Past weeks

Flag for India Past Weather in Krishnagiri, Tamil Nadu, India — Yesterday and Last 2 Weeks

Now
70 °F

Passing clouds.


Feels Like: 70 °F
Forecast: 74 / 89 °F
Wind: 9 mph from West

Location: Bangalore / Hindustan

Current Time: Aug 17, 2017 at 3:44:13 am

Latest Report: Aug 17, 2017 at 2:30 am


Visibility: 5 mi

Pressure: 29.83 "Hg

Humidity: 94%

Dew Point: 68 °F

Location of KrishnagiriLocation

Past Weather in Krishnagiri — Graph

°F

Krishnagiri Temperature Yesterday

Maximum temperature yesterday: 84 °F (at 2:30 pm)
Minimum temperature yesterday: 70 °F (at 5:30 am)
Average temperature yesterday: 77 °F

High & Low Weather Summary for the Past Weeks

 TemperatureHumidityPressure
High88 °F (Aug 2, 3:30 pm)100% (Aug 10, 7:30 am)30.01 "Hg (Aug 10, 7:30 am)
Low66 °F (Aug 15, 5:30 am)46% (Aug 2, 3:30 pm)29.71 "Hg (Aug 6, 5:00 pm)
Average77 °F73%29.89 "Hg
* Reported Aug 2 5:30 am — Aug 17 2:30 am, Krishnagiri. Weather by CustomWeather, © 2017

Note: Actual official high and low records may vary slightly from our data, if they occured in-between our weather recording intervals... More about our weather records

Advertising

Krishnagiri Weather History for the Previous 24 Hours

Scroll right to see more
 ConditionsComfort  
Time TempWeatherWind HumidityBarometerVisibility
2:30 am
Thu, Aug 17
70 °FPassing clouds.9 mph94%29.83 "Hg5 mi
1:30 am70 °FPassing clouds.12 mph94%29.86 "Hg5 mi
12:30 am72 °FPassing clouds.12 mph88%29.89 "Hg5 mi
11:30 pm
Wed, Aug 16
72 °FPassing clouds.9 mph88%29.92 "Hg5 mi
10:30 pm72 °FPassing clouds.9 mph94%29.92 "Hg5 mi
9:30 pm72 °FPartly cloudy.9 mph94%29.92 "Hg4 mi
8:30 pm75 °FPartly cloudy.14 mph83%29.89 "Hg4 mi
7:30 pm79 °FPartly cloudy.9 mph70%29.86 "HgN/A
6:30 pm79 °FBroken clouds.7 mph70%29.83 "HgN/A
5:30 pm79 °FBroken clouds.12 mph65%29.80 "HgN/A
5:00 pm81 °FScattered clouds.9 mph62%29.80 "HgN/A
4:30 pm81 °FScattered clouds.14 mph62%29.80 "HgN/A
4:00 pm81 °FScattered clouds.14 mph62%29.80 "HgN/A
3:30 pm82 °FScattered clouds.12 mph58%29.80 "HgN/A
3:00 pm84 °FScattered clouds.12 mph58%29.80 "HgN/A
2:30 pm84 °FScattered clouds.12 mph58%29.83 "HgN/A
2:00 pm82 °FScattered clouds.8 mph62%29.83 "HgN/A
1:30 pm82 °FScattered clouds.12 mph62%29.86 "HgN/A
1:00 pm82 °FScattered clouds.15 mph62%29.89 "HgN/A
12:30 pm81 °FScattered clouds.12 mph66%29.89 "HgN/A
12:00 pm79 °FScattered clouds.9 mph70%29.92 "HgN/A
11:30 am79 °FScattered clouds.12 mph70%29.92 "HgN/A
11:00 am77 °FScattered clouds.12 mph74%29.92 "HgN/A
10:30 am77 °FScattered clouds.12 mph74%29.95 "Hg5 mi
10:00 am75 °FScattered clouds.12 mph78%29.92 "Hg5 mi
9:30 am73 °FScattered clouds.12 mph83%29.95 "Hg5 mi
9:00 am73 °FScattered clouds.12 mph83%29.95 "Hg5 mi
8:30 am72 °FScattered clouds.9 mph88%29.92 "Hg4 mi
8:00 am72 °FScattered clouds.9 mph88%29.92 "Hg4 mi
7:00 am70 °FScattered clouds.7 mph94%29.92 "Hg4 mi
6:30 am70 °FPassing clouds.9 mph94%29.92 "Hg4 mi
6:00 am70 °FPassing clouds.7 mph94%29.92 "Hg4 mi
5:30 am70 °FPassing clouds.7 mph94%29.92 "Hg4 mi
Weather by CustomWeather, © 2017

See weather overviewHow to use our weather pages